Total_Precipitation_Accumulation
2.37 2.50 2.75 2.17 1.78 1.59 1.52 1.56 1.54 1.40 1.37 1.41 1.45 1.50 1.52 1.62 1.68 1.81 1.89 1.94 2.12 2.43 2.68 2.90 3.01 3.06 3.15 3.13 2.95 2.77 2.66 2.70 2.83 2.73 2.60 2.39 2.24 2.40 2.63 2.73 2.59 1.85 1.92
1.90 2.10 2.30 1.92 1.58 1.42 1.41 1.56 1.50 1.35 1.26 1.30 1.30 1.34 1.46 1.62 1.66 1.75 1.84 2.07 2.29 2.53 2.68 2.78 2.82 2.84 2.83 2.68 2.49 2.36 2.41 2.68 2.97 2.90 2.73 2.41 2.40 2.45 2.64 2.64 2.58 1.88 1.91
1.34 1.60 1.64 1.65 1.48 1.36 1.37 1.44 1.36 1.27 1.24 1.33 1.39 1.50 1.62 1.75 1.71 1.70 1.87 2.14 2.37 2.52 2.64 2.71 2.66 2.64 2.54 2.39 2.27 2.15 2.45 2.84 2.91 3.02 3.04 2.20 2.12 2.53 2.69 2.55 2.17 1.79 1.80
0.99 1.20 1.22 1.35 1.33 1.24 1.14 1.21 1.28 1.20 1.22 1.29 1.50 1.74 1.86 1.98 1.96 1.97 2.13 2.29 2.46 2.48 2.50 2.50 2.48 2.39 2.33 2.23 2.13 2.17 2.31 2.70 2.84 3.19 2.80 1.87 1.60 2.19 2.56 2.26 1.98 1.88 1.82
0.91 1.00 1.14 1.09 1.03 1.11 1.11 1.13 1.24 1.30 1.29 1.27 1.46 1.69 1.91 2.19 2.25 2.37 2.48 2.60 2.61 2.45 2.32 2.30 2.30 2.12 2.09 2.04 2.09 2.23 2.35 2.75 3.01 2.81 2.17 1.98 1.93 2.15 2.26 2.25 2.18 2.16 2.01
0.77 0.80 0.87 1.04 1.00 1.04 1.08 1.06 1.10 1.25 1.36 1.44 1.57 1.77 1.94 2.23 2.46 2.68 2.66 2.66 2.56 2.35 2.28 2.19 2.09 1.99 2.04 2.10 2.27 2.27 2.33 2.77 2.70 1.95 1.81 1.84 1.86 2.13 2.09 2.29 2.31 2.28 2.18
0.66 0.75 0.79 0.93 0.99 1.00 0.97 1.05 1.09 1.14 1.36 1.52 1.57 1.68 1.86 2.08 2.44 2.56 2.53 2.46 2.29 2.20 2.14 2.09 2.05 1.96 1.98 2.06 2.30 2.26 2.37 2.56 2.08 1.57 1.81 1.96 1.75 1.80 1.97 2.25 2.33 2.24 2.04
0.72 0.66 0.81 0.93 0.96 0.92 0.89 0.97 1.02 1.12 1.31 1.51 1.57 1.64 1.77 1.94 2.17 2.22 2.20 2.16 2.04 2.06 2.03 2.02 2.03 1.91 1.83 2.00 2.13 2.14 2.27 2.10 1.61 1.45 1.58 1.59 1.51 1.63 1.91 2.16 2.22 2.24 2.03
0.94 0.83 0.87 0.88 0.83 0.86 0.94 0.97 1.07 1.26 1.43 1.55 1.59 1.64 1.84 1.96 2.00 1.90 1.96 1.97 1.94 1.97 1.96 1.87 1.81 1.73 1.67 1.83 1.93 1.97 2.13 2.09 1.71 1.64 1.40 1.46 1.67 1.80 2.04 2.20 2.13 2.10 2.07
1.23 1.09 0.98 0.94 0.94 0.87 0.93 1.11 1.21 1.38 1.59 1.70 1.74 1.87 2.04 2.10 2.02 2.01 1.93 1.98 2.01 2.11 2.06 1.96 1.83 1.75 1.75 1.78 1.79 1.91 2.09 1.83 1.56 1.51 1.49 1.47 1.76 1.92 2.11 2.17 2.12 2.03 2.01
1.69 1.35 1.18 1.08 1.11 1.12 1.02 1.11 1.36 1.54 1.70 1.82 2.10 2.36 2.50 2.45 2.26 2.40 2.20 2.35 2.36 2.38 2.36 2.36 2.26 2.10 1.95 1.83 1.99 2.24 1.94 1.63 1.72 1.77 1.72 1.70 1.81 2.03 2.27 2.25 2.17 2.12 2.07
1.91 1.49 1.36 1.20 1.14 1.17 1.30 1.59 1.79 1.66 1.88 2.20 2.54 2.72 2.94 2.86 2.77 2.38 2.61 2.89 3.07 3.24 3.19 3.09 2.93 2.47 2.05 1.89 2.44 2.63 1.79 1.64 1.77 1.90 1.85 1.87 2.04 2.31 2.46 2.31 2.17 2.09 2.02
1.77 1.55 1.48 1.50 1.53 1.41 1.55 1.79 2.01 2.05 2.25 2.45 2.57 2.77 2.95 2.65 2.58 2.65 2.91 3.24 3.41 3.56 3.43 3.39 3.30 2.80 2.51 2.45 2.67 2.59 1.97 1.90 1.90 1.90 2.06 2.14 2.22 2.48 2.75 2.56 2.36 2.27 2.14
2.25 2.02 1.87 1.92 1.89 1.85 1.82 1.99 2.13 2.16 2.26 2.43 2.61 2.61 2.72 2.84 2.92 3.05 3.36 3.33 3.46 3.58 3.91 3.52 3.60 3.30 2.95 2.72 2.71 2.57 2.22 2.22 2.23 2.30 2.55 2.28 2.16 2.52 2.95 2.91 2.70 2.49 2.29
2.84 2.81 2.55 2.31 2.18 2.20 2.36 2.36 2.24 2.34 2.45 2.56 2.75 2.73 2.72 3.00 3.17 3.25 3.31 3.47 3.22 3.27 3.69 3.83 3.56 3.66 3.60 3.25 2.97 2.74 2.65 2.48 2.43 2.45 2.53 2.46 2.34 2.48 2.87 3.07 2.93 2.81 2.57
3.01 3.11 2.88 2.72 2.61 2.64 2.90 2.99 2.82 2.60 2.82 2.87 2.85 2.79 2.86 3.11 3.47 3.65 3.55 3.67 3.45 3.23 3.44 3.63 3.57 4.15 3.97 3.73 3.17 2.86 2.81 2.76 2.58 2.54 2.60 2.69 2.44 2.31 2.54 3.01 3.20 3.11 2.95
3.32 3.25 3.21 3.17 3.10 3.23 3.36 3.30 3.03 2.95 2.83 2.90 2.99 3.06 3.06 3.08 3.47 3.69 3.88 3.83 3.60 3.37 3.54 3.61 3.79 4.03 3.76 3.55 3.20 2.97 2.85 2.79 2.56 2.50 2.75 2.98 2.68 2.54 2.52 2.74 3.09 3.31 3.41
3.67 3.67 3.67 3.48 3.57 3.74 3.82 3.68 3.47 3.33 3.14 2.95 2.90 3.09 3.15 3.23 3.47 3.69 3.65 3.56 3.66 3.59 3.78 4.02 4.10 4.07 3.93 3.74 3.44 3.04 2.81 2.84 2.36 2.27 2.41 2.59 2.72 2.49 2.67 2.94 3.16 3.25 3.52
4.18 4.36 4.38 4.30 4.19 4.13 4.09 4.01 4.04 3.99 3.75 3.40 3.24 3.26 3.29 3.18 3.25 3.51 3.53 3.64 3.73 3.75 3.78 3.47 4.01 4.00 4.03 3.84 3.17 2.92 2.60 2.58 2.45 2.15 2.16 2.10 2.29 2.36 2.41 2.55 2.82 2.91 3.41
4.47 4.98 4.95 4.80 4.79 4.80 4.76 4.46 4.43 4.20 3.91 3.76 3.67 3.77 3.55 3.37 3.29 3.53 3.52 3.64 3.67 3.79 3.83 3.76 4.02 3.97 3.79 3.73 2.99 2.81 2.56 2.19 2.17 2.18 2.01 1.98 2.10 2.00 2.14 2.40 2.71 2.41 2.82
4.75 5.23 5.47 5.51 5.37 5.12 4.83 4.46 4.22 4.13 4.08 3.91 3.73 3.54 3.42 3.34 3.40 3.75 3.62 3.94 3.84 3.64 3.61 3.68 3.94 3.83 3.55 3.58 3.59 3.10 2.48 2.09 2.09 1.97 2.05 2.16 2.00 2.00 2.24 2.61 2.74 2.58 2.30
4.35 4.81 4.99 4.76 4.67 4.53 4.34 4.26 4.21 4.39 4.09 3.86 3.73 3.56 3.27 3.22 3.32 3.35 3.66 3.57 3.60 3.72 3.60 3.60 3.86 3.68 3.25 3.39 3.68 3.67 2.97 2.68 2.17 1.68 1.92 2.03 2.10 2.32 2.39 2.41 2.75 2.90 2.62
3.32 3.60 3.80 3.96 3.89 3.81 3.81 3.79 3.83 4.08 3.91 3.76 3.64 3.54 3.15 2.95 2.92 3.06 3.15 3.25 3.58 3.49 3.55 3.63 3.58 3.51 3.25 3.19 3.35 3.67 3.27 2.83 2.30 1.72 1.63 1.90 2.28 2.47 2.42 2.50 2.61 2.81 2.89
2.96 3.16 3.24 3.28 3.39 3.41 3.50 3.42 3.27 3.23 3.23 3.21 3.28 3.21 3.13 2.94 2.81 2.85 2.90 2.97 3.08 2.98 3.15 2.89 3.04 3.34 3.47 3.17 3.27 3.19 3.10 2.99 2.86 2.30 1.89 1.86 2.13 2.30 2.47 2.44 2.56 2.72 2.99
2.37 2.61 2.74 2.84 2.95 3.10 3.16 3.13 3.11 2.94 2.96 3.03 3.10 3.10 3.04 2.96 2.89 2.85 2.84 2.86 2.79 2.65 2.77 2.80 3.04 3.06 3.07 3.06 3.14 3.21 3.28 3.21 2.99 2.83 2.49 2.35 2.23 1.98 2.07 2.25 2.46 2.61 2.86
2.10 2.30 2.40 2.53 2.58 2.71 2.77 2.87 2.96 2.95 2.90 2.90 2.92 2.91 2.89 2.88 2.76 2.69 2.65 2.70 2.64 2.60 2.68 2.77 2.90 2.82 2.87 3.02 3.07 3.07 3.20 3.19 3.21 3.21 2.71 2.50 2.32 1.88 1.85 1.85 2.05 2.27 2.62